sat.trackr.live / text

‹ back to catalog

COSMOS 2428

NORAD 31792 · 2007-029A

PAYLOAD ACTIVE UNKNOWN

§ Identity

Operator
Country
CIS
Launch date
2007-06-29
Launch site
TYMSC
Launch vehicle
Mass (kg)
RCS (m²)
6.48

External: N2YO · Heavens-Above · Gunter

§ Orbital elements

Epoch: 2026-05-25T03:14:27.542400Z

Period
101.92 min
Inclination
70.9395°
Eccentricity
0.0007614
Mean motion
14.12934718 rev/d
Perigee alt
843.8 km
Apogee alt
854.8 km
Semi-major
7,227.5 km
B*
-1.0449e-4
RAAN
42.8775°
Arg perigee
178.5223°
Mean anomaly
181.5922°
Rev number
97,489

§ Raw data

COSMOS 24281 31792U 07029A   26145.13504100 -.00000243  00000+0 -10449-3 0  99932 31792  70.9395  42.8775 0007614 178.5223 181.5922 14.12934718974891

JSON: /api/v1/satellites/31792 · /tle

For live sub-satellite position, see the globe view (requires WebGL).

§ Visibility from observer

Set your observer location to see the next 7 days of passes ≥ 10°. The values pass through the URL so the page stays shareable.

No JS? Fill the form by hand. The geolocation button needs JavaScript.